Location: Newark
(49.5647°N, 8.2922°E)
Time: 14:55:44
(UTC+00:00)

Transit 2A - Pass Details

Date: 26 February 2020
Orbit: 597 x 962 km, 66.7° (Epoch: 04 April)

Event Time Altitude Azimuth Distance (km) Brightness Sun altitude
Rises 18:37:48 0° 326° (NNW) 3,029 9.7 -16.0°
Reaches altitude 10° 18:40:17 10° 337° (NNW) 2,165 8.7 -16.4°
Maximum altitude 18:44:41 31° 40° (NE) 1,289 6.9 -17.1°
Enters shadow 18:46:09 27° 70° (ENE) 1,444 6.9 -17.4°
Drops below altitude 10° 18:49:27 10° 103° (ESE) 2,371 - -17.9°
Sets 18:52:16 0° 113° (ESE) 3,365 - -18.3°
